EW7670 Weather Reports


Display with metric or nautical units.
time (UTC)temp
F
wind
direction
speed
MPH
gust
MPH
rain 1hr
in
rain 24hr
in
rain mn
in
humidity
%
barometer
mb
20260906163151 78 65 8.0 13.0 0.00 0.00 0.00 72 1011.7
20260906154648 79 42 10.0 14.0 0.00 0.00 0.00 71 1011.7
20260906140124 79 61 13.0 20.0 0.00 0.00 0.00 74 1011.0
20260906130015 79 52 12.0 18.0 0.00 0.00 0.00 74 1010.4
20260906120047 79 64 12.0 18.0 0.00 0.00 0.00 75 1009.8
20260906100143 78 76 10.0 16.0 0.00 0.00 0.00 81 1008.6
20260906090132 78 56 9.0 14.0 0.00 0.00 0.00 83 1008.1
20260906084612 78 41 11.0 16.0 0.00 0.00 0.00 84 1008.0
20260906083053 79 59 9.0 16.0 0.00 0.00 0.00 85 1007.8
20260906060023 77 8 3.0 6.0 0.00 0.00 0.00 87 1008.5
20260906054532 77 359 3.0 6.0 0.00 0.00 0.00 87 1008.5
20260906053032 77 21 2.0 5.0 0.00 0.00 0.00 86 1008.7
20260906051529 77 32 3.0 5.0 0.00 0.00 0.00 86 1008.5
20260906050035 77 46 3.0 6.0 0.00 0.00 0.00 85 1008.4
20260906044544 77 57 4.0 6.0 0.00 0.00 0.00 84 1008.5
20260906043043 77 63 4.0 8.0 0.00 0.00 0.00 84 1008.6
20260906041541 77 64 6.0 8.0 0.00 0.00 0.00 84 1008.6
20260906040050 77 49 6.0 11.0 0.00 0.00 0.00 85 1008.7
20260906004642 80 352 6.0 10.0 0.00 0.01 0.00 87 1008.8
20260906003120 80 8 7.0 9.0 0.00 0.01 0.00 86 1008.5
20260905224558 81 66 2.0 4.0 0.00 0.04 0.00 85 1008.2
20260905220150 81 99 2.0 6.0 0.00 0.04 0.00 85 1007.2
20260905194608 83 58 9.0 13.0 0.00 0.04 0.00 82 1008.1